TimeCDT,TemperatureF,Dew PointF,Humidity,Sea Level PressureIn,VisibilityMPH,Wind Direction,Wind SpeedMPH,Gust SpeedMPH,PrecipitationIn,Events,Conditions,WindDirDegrees,DateUTC
12:53 AM,42.1,26.1,53,30.27,10.0,ENE,3.5,-,N/A,,Clear,60,2014-03-26 05:53:00
1:53 AM,35.1,28.9,78,30.27,10.0,Calm,Calm,-,N/A,,Clear,0,2014-03-26 06:53:00
2:53 AM,36.0,28.9,76,30.26,10.0,Calm,Calm,-,N/A,,Clear,0,2014-03-26 07:53:00
3:53 AM,34.0,28.9,82,30.27,10.0,Calm,Calm,-,N/A,,Clear,0,2014-03-26 08:53:00
4:53 AM,32.0,28.0,85,30.27,10.0,Calm,Calm,-,N/A,,Clear,0,2014-03-26 09:53:00
5:53 AM,36.0,27.0,70,30.27,10.0,ENE,4.6,-,N/A,,Clear,70,2014-03-26 10:53:00
6:53 AM,37.0,25.0,62,30.29,10.0,ENE,4.6,-,N/A,,Clear,70,2014-03-26 11:53:00
7:53 AM,37.0,28.9,73,30.35,10.0,Calm,Calm,-,N/A,,Clear,0,2014-03-26 12:53:00
8:53 AM,43.0,24.1,47,30.35,10.0,East,5.8,-,N/A,,Clear,80,2014-03-26 13:53:00
9:53 AM,46.9,25.0,42,30.38,10.0,SSE,10.4,-,N/A,,Clear,150,2014-03-26 14:53:00
10:53 AM,50.0,23.0,35,30.37,10.0,SSE,6.9,-,N/A,,Clear,150,2014-03-26 15:53:00
11:53 AM,52.0,23.0,32,30.35,10.0,Variable,5.8,-,N/A,,Clear,0,2014-03-26 16:53:00
12:53 PM,54.0,23.0,30,30.32,10.0,Variable,5.8,-,N/A,,Clear,0,2014-03-26 17:53:00
1:53 PM,54.0,25.0,33,30.30,10.0,South,9.2,-,N/A,,Clear,170,2014-03-26 18:53:00
2:53 PM,55.9,25.0,30,30.27,10.0,SSE,9.2,-,N/A,,Clear,160,2014-03-26 19:53:00
3:53 PM,57.9,27.0,31,30.23,10.0,SSE,11.5,17.3,N/A,,Clear,160,2014-03-26 20:53:00
4:53 PM,57.9,26.1,30,30.21,10.0,SE,8.1,17.3,N/A,,Clear,140,2014-03-26 21:53:00
5:53 PM,55.9,26.1,32,30.19,10.0,SSE,10.4,17.3,N/A,,Clear,160,2014-03-26 22:53:00
6:53 PM,54.0,26.1,34,30.19,10.0,SSE,5.8,-,N/A,,Clear,150,2014-03-26 23:53:00
7:53 PM,51.1,30.0,44,30.19,10.0,Calm,Calm,-,N/A,,Clear,0,2014-03-27 00:53:00
8:53 PM,51.1,32.0,48,30.20,10.0,South,8.1,-,N/A,,Clear,180,2014-03-27 01:53:00
9:53 PM,50.0,33.1,52,30.25,10.0,SW,4.6,-,N/A,,Overcast,230,2014-03-27 02:53:00
10:53 PM,50.0,33.1,52,30.22,10.0,SSE,6.9,-,N/A,,Overcast,150,2014-03-27 03:53:00
11:53 PM,48.9,34.0,56,30.19,10.0,SE,4.6,-,N/A,,Overcast,130,2014-03-27 04:53:00